Location: Alincthun
(50.7310°N, 1.8022°E)
Time: 19:57:23
(UTC+00:00)

Cosmos 2100 Rocket - Pass Details

Date: 17 February 2020
Orbit: 955 x 1002 km, 82.9° (Epoch: 30 March)

Event Time Altitude Azimuth Distance (km) Brightness Sun altitude
Rises 04:51:28 0° 351° (N) 3,696 7.0 -21.3°
Reaches altitude 10° 04:54:02 10° 354° (N) 2,737 6.3 -20.9°
Maximum altitude 05:00:17 68° 77° (ENE) 1,039 4.3 -19.9°
Drops below altitude 10° 05:06:25 10° 161° (SSE) 2,690 6.5 -18.9°
Sets 05:08:55 0° 164° (SSE) 3,628 7.2 -18.5°
